Wind_Speed
29 29 28 27 27 26 26 24 22 20 19 18 17 16 16 15 15 15 15 15 15 15 15 15 15 15 15 15 14 14 14 15 15 14 13 13 13 13 13 13 14 15 15 14
30 29 28 27 27 27 26 25 23 22 20 19 18 17 17 16 15 15 15 16 16 16 15 15 15 15 15 14 14 14 14 14 14 13 13 13 12 12 13 13 14 14 15 15
29 29 29 28 27 26 25 24 23 21 20 20 19 18 18 17 16 16 16 16 16 17 16 16 16 16 16 15 15 15 15 14 14 14 13 13 13 13 13 14 15 16 16 16
27 29 29 28 26 25 25 24 23 22 21 21 20 19 18 18 17 17 16 16 17 17 17 17 16 16 16 16 16 15 15 14 14 13 13 12 13 13 13 14 14 14 15 15
28 27 27 28 26 25 24 24 23 23 22 22 21 19 19 19 19 18 18 17 17 18 17 17 17 17 17 17 17 15 15 14 14 13 13 13 13 13 14 14 14 14 15 15
29 26 25 28 26 24 24 24 23 23 23 23 22 21 20 20 20 20 19 19 19 19 19 19 18 18 18 18 17 16 15 15 15 14 14 14 14 14 15 15 15 16 16 17
30 28 27 28 26 25 25 25 24 23 23 23 24 23 21 21 21 20 20 20 20 20 20 19 19 18 19 19 18 17 17 16 16 16 16 15 15 15 16 16 16 16 17 17
30 29 29 28 26 26 26 26 25 24 24 24 24 24 23 22 22 21 21 21 21 21 20 20 19 19 19 19 18 17 17 16 16 16 16 17 17 17 17 17 17 17 18 18
33 32 30 28 27 26 26 26 26 25 25 25 25 25 24 24 24 23 23 23 22 21 21 20 19 19 19 19 19 18 17 17 17 17 18 18 18 18 18 18 18 19 19 19
34 33 31 30 29 28 27 27 27 26 26 26 26 26 25 25 24 24 24 23 22 21 21 20 20 19 19 19 19 19 19 18 19 19 19 19 19 19 19 19 20 20 20 21
34 34 33 32 31 30 29 28 28 28 28 27 27 26 25 25 25 24 24 23 22 22 21 21 20 20 20 20 19 19 20 20 20 20 19 19 20 20 20 21 21 21 21 21
36 35 34 33 32 31 30 29 29 29 29 28 28 27 26 25 24 24 24 23 23 23 22 22 21 21 21 20 20 21 21 21 20 20 20 20 20 21 21 22 22 22 22 22
36 35 34 33 32 31 30 30 29 29 29 28 28 28 27 27 26 25 25 25 25 24 23 22 22 21 21 21 21 21 21 20 20 20 20 20 21 22 22 23 23 23 24 24
35 34 33 33 33 32 31 30 29 29 29 28 29 29 28 28 27 27 27 26 26 25 24 23 22 22 21 21 21 21 21 21 21 21 21 22 22 23 23 23 24 24 24 25
33 33 32 31 31 31 31 30 29 29 29 29 29 30 30 29 29 29 28 27 26 25 24 24 23 23 23 23 23 23 23 23 23 23 23 23 24 24 24 24 25 25 25 26
32 32 31 30 30 30 30 30 29 28 28 29 30 30 30 30 29 29 28 28 26 25 25 25 25 25 24 24 24 24 24 24 24 24 24 24 24 24 25 25 25 25 26 26
32 31 30 29 30 30 30 30 29 28 28 28 29 29 29 29 28 28 28 27 27 26 25 25 25 25 24 24 24 25 25 24 24 24 24 24 24 25 26 26 26 26 27 27
31 30 29 29 29 29 29 29 29 29 29 28 29 29 28 28 27 27 27 26 27 26 26 25 25 25 25 25 25 24 24 24 25 25 25 25 26 26 27 27 27 27 28 28
29 29 29 28 28 28 28 28 29 29 29 28 28 28 28 28 28 27 27 26 26 26 26 26 26 26 25 24 24 24 24 24 24 24 25 26 26 26 27 27 28 28 28 28
27 28 29 29 28 28 28 27 28 28 29 28 28 28 28 27 26 25 25 24 24 24 25 25 26 26 24 23 23 23 24 24 24 24 25 25 25 26 26 27 27 27 27 28
27 28 28 29 28 28 28 27 27 28 29 29 28 28 27 27 26 25 25 24 24 24 24 24 24 23 22 22 22 23 24 24 24 24 25 25 25 25 25 26 26 27 28 29
25 26 27 27 27 26 26 26 26 27 28 27 26 25 26 26 25 25 25 24 24 23 23 22 22 22 22 22 22 23 24 24 24 23 24 24 25 25 26 27 27 27 28 29
24 25 25 25 25 25 25 25 25 25 25 25 25 24 24 24 23 23 23 22 22 21 21 20 20 20 21 21 22 22 23 23 23 23 24 25 26 26 26 27 27 28 29 29
23 23 23 23 23 23 23 24 24 23 22 22 22 21 21 21 21 21 20 20 20 20 20 20 20 20 20 20 20 21 21 22 22 23 23 24 25 26 26 27 28 28 28 27
21 21 20 21 21 21 22 21 21 21 20 20 20 20 20 20 19 20 19 19 19 19 19 19 19 20 20 20 20 21 22 22 23 23 25 25 26 26 27 27 27 27 26 26
19 19 19 19 19 20 20 20 20 19 19 18 18 18 17 17 17 17 18 18 18 18 18 19 19 20 20 20 21 21 21 22 22 23 24 25 25 25 26 25 25 25 25 25
17 18 18 18 18 17 17 17 17 18 18 17 17 16 16 16 16 16 16 16 17 17 18 18 19 19 19 19 20 20 21 22 22 23 24 24 24 24 24 24 24 24 24 25
Wind_Direction
221 226 228 230 231 232 232 235 239 244 245 248 249 248 250 253 254 257 261 264 271 277 282 285 288 290 290 290 290 290 291 292 293 292 292 294 290 285 283 283 286 287 287 287
223 226 227 228 228 229 230 232 236 240 244 245 247 247 248 250 253 256 259 262 267 273 280 286 288 288 290 290 291 291 292 294 295 294 293 292 290 287 286 286 285 285 286 287
224 226 228 229 229 229 230 233 236 240 242 243 243 243 245 247 250 253 258 261 266 269 273 281 286 287 289 289 291 293 294 293 294 294 294 292 289 287 286 287 287 287 288 289
223 225 227 230 230 230 231 233 236 238 239 240 242 242 244 246 249 252 255 259 263 265 271 278 283 285 286 286 289 292 293 292 292 292 293 292 292 287 287 289 291 292 292 290
223 227 229 231 230 231 232 235 237 238 238 238 240 243 244 246 248 250 253 257 262 265 270 276 280 282 285 284 286 288 288 289 289 289 290 291 292 290 291 291 291 293 297 298
222 223 229 232 229 229 232 236 237 238 239 239 240 242 245 244 246 248 252 257 262 266 270 273 276 278 281 283 284 284 285 287 287 289 293 295 293 290 291 291 292 294 297 298
223 224 228 230 227 228 232 236 237 238 239 240 240 241 243 243 245 249 254 258 261 265 270 271 274 275 277 279 281 283 283 283 283 287 291 293 293 294 293 293 295 296 296 297
222 224 230 227 227 229 233 236 238 239 240 240 240 240 241 242 246 250 255 258 261 264 267 270 273 273 276 277 278 279 279 280 281 285 289 292 293 292 291 292 293 294 295 296
222 225 229 228 229 231 233 235 238 239 240 239 238 239 241 243 246 250 255 259 262 264 266 268 271 272 272 273 273 273 277 278 280 285 288 289 290 290 290 291 292 293 295 295
226 228 230 230 231 232 235 237 239 240 240 239 238 239 242 244 247 250 253 258 261 263 265 267 269 269 268 272 271 271 275 278 281 284 286 286 286 288 291 292 293 293 294 296
227 229 230 231 233 235 237 238 240 239 238 237 237 240 243 245 246 248 251 255 258 261 264 264 266 266 267 268 268 272 275 278 281 282 282 283 284 286 289 291 292 293 293 295
227 228 231 232 234 237 239 240 240 240 238 237 237 239 241 244 245 246 249 253 255 259 263 263 265 265 263 265 268 271 274 277 278 280 281 282 283 285 287 289 291 292 294 296
228 230 232 233 235 237 239 240 240 241 239 238 236 238 240 242 244 246 249 252 254 258 261 262 262 262 262 264 267 270 274 276 277 279 279 280 283 286 288 289 291 293 295 297
228 230 232 234 236 237 238 239 239 240 239 237 236 236 239 241 243 246 248 252 254 255 257 259 259 261 262 264 267 270 273 276 277 277 279 281 284 287 289 291 293 295 296 298
229 230 232 234 235 235 236 238 238 238 237 236 236 237 239 240 243 246 249 252 254 254 255 257 258 259 261 264 266 269 272 275 277 279 281 283 285 287 289 291 292 294 296 298
227 228 230 232 233 233 234 235 235 236 236 236 236 237 239 241 245 247 249 250 252 253 255 256 258 259 261 264 267 270 272 275 278 280 282 284 285 287 290 292 292 294 295 297
226 227 228 230 230 231 232 231 231 232 233 233 235 237 239 240 242 245 247 248 250 252 254 256 257 259 261 264 267 271 272 274 277 280 283 285 287 288 290 291 291 293 295 296
223 224 225 226 227 229 229 228 229 231 232 233 235 237 238 240 241 244 246 246 248 250 253 254 258 261 262 265 267 268 271 275 277 280 282 284 286 287 288 289 291 292 294 296
221 222 224 225 225 226 226 226 227 228 230 231 233 236 239 240 241 242 243 244 247 251 253 255 256 259 262 264 266 268 272 276 279 282 283 284 286 286 287 288 290 291 292 294
218 220 221 221 222 222 222 223 225 226 228 231 234 236 239 241 240 242 242 243 247 250 252 255 258 260 260 263 267 269 273 276 279 282 284 285 285 286 287 289 291 293 294 296
219 219 218 218 220 221 221 223 225 228 231 231 232 235 238 239 240 241 242 245 248 250 251 255 257 258 260 264 267 271 274 277 279 282 284 285 285 286 288 290 292 294 296 298
216 216 216 216 218 220 221 223 226 228 229 229 231 232 234 237 239 239 240 244 247 249 251 254 257 259 261 264 268 271 274 277 279 282 284 286 287 288 290 292 293 295 297 299
214 214 213 214 217 219 221 222 224 225 225 225 227 228 230 232 234 236 239 241 243 246 249 251 255 260 263 266 270 272 274 278 280 282 284 285 287 290 292 294 295 297 298 299
208 209 209 211 213 216 218 219 222 222 221 221 222 224 226 229 232 234 237 241 243 245 249 253 257 262 265 269 272 274 276 279 282 284 285 287 288 290 292 294 296 297 298 299
203 206 210 213 215 215 214 216 217 217 217 217 219 222 226 230 234 235 237 240 244 246 249 254 260 264 268 271 273 276 279 282 285 286 287 288 290 291 293 295 296 297 298 300
197 202 204 205 207 209 212 214 217 219 220 220 221 223 225 229 234 237 239 242 244 247 253 259 263 267 270 272 275 279 282 284 286 288 289 290 291 293 294 295 297 298 299 300
196 197 198 201 203 206 209 212 214 214 215 218 222 225 229 233 236 240 244 247 250 254 259 262 264 268 272 275 279 283 286 288 289 291 292 293 294 294 295 296 297 298 299 301
Height
5845 5848 5852 5856 5860 5863 5866 5871 5875 5877 5878 5879 5880 5881 5882 5883 5883 5884 5884 5884 5884 5883 5883 5882 5880 5879 5877 5876 5874 5873 5871 5870 5868 5867 5865 5864 5863 5863 5862 5862 5861 5860 5859 5858
5839 5842 5846 5850 5854 5857 5861 5865 5868 5871 5873 5875 5875 5876 5878 5879 5879 5880 5880 5880 5880 5880 5879 5878 5877 5876 5874 5873 5871 5870 5868 5867 5865 5864 5862 5861 5861 5860 5859 5859 5858 5857 5856 5855
5834 5838 5841 5845 5849 5852 5856 5859 5863 5866 5869 5869 5871 5872 5873 5874 5875 5876 5876 5876 5876 5876 5876 5875 5873 5872 5871 5869 5868 5867 5865 5864 5862 5861 5859 5858 5858 5857 5857 5856 5855 5854 5853 5851
5829 5833 5836 5842 5843 5847 5851 5854 5857 5860 5862 5864 5866 5867 5869 5870 5871 5871 5872 5872 5872 5872 5872 5871 5870 5868 5867 5866 5865 5864 5862 5861 5859 5858 5857 5856 5855 5854 5854 5853 5852 5851 5849 5848
5823 5827 5831 5834 5838 5842 5846 5849 5852 5854 5857 5859 5861 5863 5864 5865 5866 5867 5868 5868 5868 5868 5867 5867 5866 5865 5864 5863 5862 5860 5859 5858 5857 5856 5855 5854 5853 5852 5851 5850 5849 5848 5846 5845
5818 5823 5827 5830 5833 5837 5841 5843 5846 5849 5851 5853 5856 5858 5859 5860 5861 5862 5863 5863 5863 5863 5863 5863 5862 5861 5860 5859 5858 5857 5856 5855 5854 5853 5852 5851 5850 5849 5848 5847 5846 5845 5843 5842
5811 5816 5820 5823 5827 5832 5836 5838 5840 5843 5845 5848 5850 5852 5854 5855 5856 5857 5858 5858 5858 5858 5858 5858 5857 5857 5856 5855 5854 5853 5853 5852 5851 5850 5849 5848 5847 5846 5845 5844 5842 5841 5840 5838
5805 5810 5815 5817 5821 5825 5829 5831 5834 5837 5839 5842 5844 5846 5848 5850 5851 5852 5853 5853 5853 5853 5853 5853 5852 5852 5851 5850 5850 5849 5849 5848 5847 5847 5846 5844 5843 5842 5841 5840 5839 5837 5836 5834
5799 5804 5807 5811 5815 5818 5821 5824 5827 5830 5833 5835 5838 5840 5842 5844 5845 5846 5847 5848 5848 5848 5848 5848 5847 5846 5846 5846 5845 5845 5845 5844 5843 5843 5842 5840 5839 5838 5837 5836 5834 5833 5831 5830
5791 5796 5800 5804 5808 5811 5814 5818 5821 5824 5826 5829 5831 5834 5836 5838 5839 5840 5841 5842 5842 5843 5843 5842 5842 5842 5842 5841 5841 5841 5840 5840 5839 5838 5837 5836 5835 5834 5833 5832 5830 5829 5827 5825
5783 5788 5793 5796 5800 5804 5807 5811 5814 5816 5819 5822 5825 5827 5829 5831 5833 5834 5835 5836 5836 5837 5837 5837 5837 5836 5837 5837 5836 5836 5835 5835 5834 5833 5832 5831 5830 5829 5828 5827 5825 5824 5822 5820
5775 5780 5785 5789 5793 5797 5800 5804 5806 5809 5812 5815 5817 5820 5823 5824 5826 5827 5829 5829 5830 5831 5831 5831 5831 5831 5831 5831 5831 5831 5830 5830 5829 5828 5827 5826 5825 5824 5823 5822 5820 5819 5817 5815
5768 5773 5777 5782 5785 5789 5793 5796 5799 5802 5804 5807 5810 5813 5815 5818 5819 5821 5822 5823 5824 5825 5825 5825 5825 5825 5826 5826 5826 5826 5825 5824 5824 5823 5822 5822 5820 5819 5818 5816 5814 5813 5811 5809
5760 5765 5770 5774 5778 5781 5785 5788 5791 5794 5797 5800 5802 5805 5808 5810 5812 5814 5815 5816 5817 5818 5819 5819 5819 5820 5820 5820 5820 5820 5820 5819 5819 5818 5817 5816 5815 5813 5812 5810 5808 5806 5804 5802
5752 5757 5762 5766 5770 5773 5776 5780 5784 5787 5789 5792 5795 5798 5801 5803 5805 5807 5808 5809 5810 5811 5812 5813 5813 5814 5814 5814 5815 5814 5814 5814 5813 5812 5811 5810 5809 5807 5806 5804 5802 5800 5798 5796
5745 5749 5753 5758 5761 5765 5768 5772 5776 5779 5782 5785 5788 5791 5793 5795 5798 5799 5801 5802 5804 5805 5806 5807 5807 5808 5808 5808 5809 5808 5808 5808 5807 5806 5805 5803 5802 5800 5799 5797 5796 5794 5791 5789
5737 5742 5746 5750 5754 5757 5761 5764 5768 5771 5774 5777 5780 5783 5785 5788 5790 5792 5793 5795 5797 5798 5799 5800 5801 5801 5802 5802 5802 5802 5801 5801 5800 5799 5798 5797 5795 5794 5792 5790 5789 5787 5784 5782
5730 5734 5738 5742 5746 5749 5753 5756 5760 5763 5766 5769 5772 5775 5778 5780 5782 5784 5786 5787 5789 5791 5792 5793 5794 5795 5795 5795 5795 5795 5795 5794 5793 5792 5791 5790 5788 5787 5785 5784 5782 5779 5777 5775
5723 5727 5731 5735 5738 5742 5745 5749 5752 5756 5759 5762 5765 5768 5770 5773 5775 5777 5779 5781 5782 5784 5785 5786 5787 5788 5788 5788 5788 5788 5788 5787 5786 5785 5784 5783 5781 5780 5778 5776 5774 5772 5770 5767
5717 5721 5725 5728 5732 5736 5739 5742 5746 5749 5752 5755 5758 5761 5764 5766 5768 5770 5772 5774 5776 5777 5779 5780 5781 5781 5781 5781 5781 5781 5781 5780 5779 5778 5777 5776 5774 5773 5771 5769 5767 5764 5762 5759
5711 5715 5719 5722 5726 5730 5733 5737 5740 5743 5746 5749 5752 5754 5757 5759 5761 5763 5766 5768 5769 5771 5772 5773 5774 5774 5775 5775 5775 5775 5774 5773 5772 5771 5770 5769 5767 5765 5764 5761 5759 5757 5754 5752
5706 5709 5713 5717 5721 5725 5728 5731 5734 5736 5739 5742 5745 5748 5750 5753 5755 5757 5759 5761 5763 5764 5765 5767 5768 5768 5769 5769 5768 5768 5767 5767 5766 5764 5763 5762 5760 5758 5756 5754 5752 5749 5746 5744
5701 5705 5709 5713 5716 5719 5722 5726 5728 5731 5734 5737 5739 5742 5744 5747 5749 5752 5754 5756 5757 5758 5760 5761 5761 5762 5762 5762 5762 5761 5761 5760 5759 5758 5757 5755 5753 5751 5749 5747 5744 5741 5739 5735
5698 5701 5704 5708 5711 5715 5718 5721 5724 5727 5729 5732 5734 5737 5739 5741 5744 5746 5748 5750 5751 5753 5754 5755 5756 5756 5756 5756 5756 5755 5754 5753 5752 5751 5749 5748 5746 5744 5742 5739 5736 5733 5730 5727
5695 5698 5701 5704 5707 5710 5713 5716 5719 5722 5725 5727 5730 5732 5735 5737 5740 5742 5743 5745 5746 5747 5748 5749 5750 5750 5750 5750 5749 5748 5748 5747 5745 5744 5742 5740 5738 5736 5734 5731 5728 5725 5723 5720
5692 5695 5698 5701 5704 5707 5710 5713 5716 5719 5721 5724 5726 5729 5731 5733 5735 5737 5738 5740 5741 5742 5743 5743 5744 5744 5744 5744 5743 5742 5741 5740 5738 5737 5735 5733 5731 5728 5726 5723 5720 5718 5715 5712
5690 5693 5696 5699 5702 5704 5707 5710 5713 5716 5718 5721 5723 5725 5727 5729 5731 5732 5734 5735 5736 5737 5738 5738 5738 5738 5738 5737 5737 5736 5735 5733 5732 5730 5728 5726 5723 5721 5718 5716 5713 5710 5708 5705